sat.trackr.live / text

‹ back to catalog

STARLINK-2466

NORAD 48125 · 2021-027AK

PAYLOAD ACTIVE UNKNOWN

§ Identity

Operator
Country
US
Launch date
2021-04-07
Launch site
AFETR
Launch vehicle
Mass (kg)
RCS (m²)

Purposes: comms

External: N2YO · Heavens-Above · Gunter

§ Orbital elements

Epoch: 2026-09-19T18:36:04.717440Z

Period
94.01 min
Inclination
53.1592°
Eccentricity
0.0001148
Mean motion
15.31717076 rev/d
Perigee alt
469.9 km
Apogee alt
471.5 km
Semi-major
6,848.8 km
B*
1.6401e-4
RAAN
342.3463°
Arg perigee
90.0583°
Mean anomaly
270.0550°
Rev number
30,224

§ Raw data

STARLINK-24661 48125U 21027AK  26262.77505460  .00004730  00000+0  16401-3 0  99922 48125  53.1592 342.3463 0001148  90.0583 270.0550 15.31717076302249

JSON: /api/v1/satellites/48125 · /tle

For live sub-satellite position, see the globe view (requires WebGL).

§ Visibility from observer

Set your observer location to see the next 7 days of passes ≥ 10°. The values pass through the URL so the page stays shareable.

No JS? Fill the form by hand. The geolocation button needs JavaScript.